Location: Newark
(44.3248°N, 23.7839°E)
Time: 00:02:23
(UTC+00:00)

PCSat - Pass Details

Date: 17 April 2024
Orbit: 783 x 792 km, 67.1° (Epoch: 21 May)

Event Time Altitude Azimuth Distance (km) Brightness Sun altitude
Rises 18:19:05 0° 200° (SSW) 3,262 12.7 -11.9°
Reaches altitude 10° 18:21:30 10° 197° (SSW) 2,339 11.9 -12.3°
Maximum altitude 18:26:47 64° 117° (ESE) 873 9.5 -13.1°
Drops below altitude 10° 18:32:08 10° 37° (NE) 2,361 12.0 -13.9°
Sets 18:34:35 0° 34° (NE) 3,296 12.8 -14.3°
